Location: Unspecified
(0.0000°N, 0.0000°E)
Time: 23:15:29
(UTC+00:00)

Tiros 1 - Visible Passes

Search period start: 08 February 2016 00:00
Search period end: 18 February 2016 00:00
Orbit: 631 x 665 km, 48.4° (Epoch: 08 February)

Date Brightness Start Highest point End Pass type
(mag) Time Alt. Az. Time Alt. Az. Time Alt. Az.
08 Feb 7.1 19:39:09 10° NW 19:43:53 85° SW 19:46:18 29° SE visible
09 Feb 9.3 20:06:21 10° WNW 20:10:13 25° SW 20:14:03 10° S visible
10 Feb 7.1 18:49:45 10° NW 18:54:31 86° NE 18:59:13 10° SE visible
11 Feb 10.3 05:23:29 10° SSE 05:25:29 13° SE 05:27:29 10° ESE visible
11 Feb 9.3 19:16:48 10° WNW 19:20:50 28° SW 19:24:51 10° S visible
13 Feb 10.3 04:34:45 10° SSE 04:36:06 11° SE 04:37:27 10° ESE visible
14 Feb 8.7 04:58:13 10° SSW 05:02:30 36° SE 05:06:48 10° ENE visible
15 Feb 7.1 05:24:13 10° SW 05:28:49 64° NW 05:33:27 10° NNE visible
16 Feb 8.7 04:11:48 27° SSE 04:13:08 32° SE 04:17:18 10° ENE visible
17 Feb 6.9 04:39:26 72° NW 04:39:26 72° NW 04:44:06 10° NNE visible
